Location: Evensen
(52.5775°N, 9.5258°E)
Time: 10:57:19
(UTC+00:00)

Cosmos 2322 Rocket - Pass Details

Date: 15 May 2026
Orbit: 831 x 850 km, 71.0° (Epoch: 6 June)

Event Time Altitude Azimuth Distance (km) Brightness Sun altitude
Rises 20:32:48 0° 328° (NNW) 3,407 7.5 -9.9°
Reaches altitude 10° 20:35:14 10° 328° (NNW) 2,471 6.2 -10.2°
Maximum altitude 20:40:56 87° 242° (WSW) 854 2.2 -10.7°
Enters shadow 20:45:50 14° 153° (SSE) 2,172 3.7 -11.1°
